map of MEA home
MEA - Airport
Location
City:  Macaé, Rio de Janeiro, Brazil
ICAO:SBME
IATA:MEA

Details
Type:Airport (Aerodrome, Airfield)
Latitude:22°20'35"S (-22.343030)
Longitude:41°45'58"W (-41.766032)
Datum:WGS 1984
Elevation:8 ft (2 m)
Variation:23.31°W (WMM2015v2 magnetic declination)
-0.06° annual change
Runways:1
Longest:3937 × 98 ft (1200 × 30 m), paved

Time
Time Zone:UTC-3 (DST-2)
Local Time:

Weather
METAR:SBME 041400Z 18005KT 9999 FEW030 BKN090 37/23 Q1012
TAF:SBME 040900Z 0412/0424 21010KT 7000 BKN017 TX29/0417Z TN25/0424Z
BECMG 0415/0417 17015KT BKN015 PROB40 0418/0422 5000 TSRA BKN020 FEW030CB
RMK PGU

Related Locations
Nearby:
Farthest:IWO: 12181 mi / 19604 km
Iwo Jima [Iwo Jima AB], Iwo Jima Island, 13, JP

Find:

   beyond  
but within

Other Information
Maps:
NOTAMs:
Links:
Sources:

  
  • flag of Brazil
  • flag of Rio de Janeiro
  

Sectional Chart

Flight Planning
at skyvector.com

Satellite Image

Google Maps Satellite view

 

Copyright © 2004-2019 Karl L. Swartz. All rights reserved.
The Great Circle Mapper name and logo are trademarks of the Great Circle Mapper.
All other trademarks mentioned herein belong to their respective owners.
Please see credits for attibutions and further copyright information.

  Follow gcmap on Facebook Follow gcmap on Twitter GCmap on LinkedIn

hCard Microformat

Geo Microformat